Location: Eschentzwiller
(47.7125°N, 7.3981°E)
Time: 04:15:05
(UTC+00:00)

Cosmos 1953 Rocket - Pass Details

Date: 27 October 2020
Orbit: 605 x 634 km, 82.5° (Epoch: 01 December)

Event Time Altitude Azimuth Distance (km) Brightness Sun altitude
Rises 17:35:08 0° 347° (NNW) 2,902 7.1 -13.2°
Reaches altitude 10° 17:37:23 10° 344° (NNW) 1,996 6.3 -13.5°
Maximum altitude 17:41:44 60° 265° (W) 715 4.2 -14.3°
Drops below altitude 10° 17:46:06 10° 185° (S) 1,997 6.3 -15.0°
Sets 17:48:21 0° 182° (S) 2,903 7.1 -15.4°
